This is the latest recevied weather packets stored in our database for station/object W6JCZ-13. If no packets are shown the sender has not sent any weather packets the latest 10 day(s).
| Time | Temp. | Humidity | Pressure | Rain* | Wind** | Luminosity | Snow |
|---|---|---|---|---|---|---|---|
| 1778007316 | 16.67° C | 78% | 1014.2 hPa | 0 mm | - | - | - |
| 1778006716 | 15.56° C | 81% | 1014.1 hPa | 0 mm | - | - | - |
| 1778006118 | 15.56° C | 80% | 1014.1 hPa | 0 mm | - | - | - |
| 1778005517 | 15° C | 82% | 1014 hPa | 0 mm | - | - | - |
| 1778004918 | 15° C | 83% | 1014 hPa | 0 mm | - | - | - |
| 1778004318 | 15° C | 82% | 1013.8 hPa | 0 mm | - | - | - |
| 1778003718 | 15° C | 83% | 1013.9 hPa | 0 mm | - | - | - |
| 1778003118 | 15° C | 83% | 1013.8 hPa | 0 mm | - | - | - |
| 1778002518 | 14.44° C | 85% | 1013.8 hPa | 0 mm | - | - | - |
| 1778001918 | 14.44° C | 85% | 1013.8 hPa | 0 mm | - | - | - |
| 1778001317 | 13.89° C | 86% | 1013.7 hPa | 0 mm | - | - | - |
| 1778000718 | 13.89° C | 88% | 1013.7 hPa | 0 mm | - | - | - |
| 1778000117 | 13.89° C | 87% | 1013.8 hPa | 0 mm | - | - | - |
| 1777999517 | 13.89° C | 88% | 1013.6 hPa | 0 mm | - | - | - |
| 1777998917 | 13.89° C | 90% | 1013.6 hPa | 0 mm | - | - | - |
| 1777998317 | 13.33° C | 91% | 1013.6 hPa | 0 mm | - | - | - |
| 1777997717 | 13.33° C | 91% | 1013.4 hPa | 0 mm | - | - | - |
| 1777997117 | 12.78° C | 91% | 1013.3 hPa | 0 mm | - | - | - |
| 1777996517 | 12.78° C | 92% | 1013.3 hPa | 0 mm | - | - | - |
| 1777995917 | 12.78° C | 92% | 1013.2 hPa | 0 mm | - | - | - |
| 1777995318 | 12.22° C | 92% | 1013.2 hPa | 0 mm | - | - | - |
| 1777994717 | 12.22° C | 92% | 1013.1 hPa | 0 mm | - | - | - |
| 1777994117 | 12.22° C | 92% | 1013.1 hPa | 0 mm | - | - | - |
| 1777993517 | 12.22° C | 92% | 1012.9 hPa | 0 mm | - | - | - |
| 1777992917 | 12.22° C | 92% | 1012.9 hPa | 0 mm | - | - | - |
* Rain latest hour (hover to see other rain measurements)
** Current wind speed in m/s (hover to see current wind gust speed)